Location: Penton Mewsey
(51.2167°N, 1.5167°W)
Time: 11:05:27
(UTC+00:00)

STARLINK-1108 - Pass Details

Date: 30 March 2020
Orbit: 549 x 550 km, 53.0° (Epoch: 26 May)

Event Time Altitude Azimuth Distance (km) Brightness Sun altitude
Rises 18:52:59 0° 289° (WNW) 2,732 9.7 -3.4°
Reaches altitude 10° 18:55:15 10° 286° (WNW) 1,835 8.3 -3.7°
Maximum altitude 18:59:20 56° 208° (SSW) 661 4.2 -4.3°
Drops below altitude 10° 19:03:24 10° 130° (SE) 1,827 5.7 -5.0°
Enters shadow 19:04:40 - 128° (SE) 2,327 6.2 -5.2°
